Time,TemperatureF,DewpointF,PressureIn,WindDirection,WindDirectionDegrees,WindSpeedMPH,WindSpeedGustMPH,Humidity,HourlyPrecipIn,Conditions,Clouds,dailyrainin,SoftwareType,DateUTC
2013-09-05 00:13:00,65.0,57.0,-100.00,NE,49,2.0,3.0,77,0.00,,,0.00,,2013-09-05 04:13:00,
2013-09-05 00:24:00,64.0,57.0,-100.00,NNE,25,3.0,4.0,79,0.00,,,0.00,,2013-09-05 04:24:00,
2013-09-05 00:44:00,64.0,57.0,-100.00,NE,47,2.0,3.0,79,0.00,,,0.00,,2013-09-05 04:44:00,
2013-09-05 00:53:00,64.0,57.0,-100.00,NE,38,2.0,3.0,79,0.00,,,0.00,,2013-09-05 04:53:00,
2013-09-05 01:13:00,65.0,57.0,-100.00,NE,41,3.0,4.0,76,0.00,,,0.00,,2013-09-05 05:13:00,
2013-09-05 01:23:00,65.0,57.0,-100.00,ENE,69,2.0,4.0,75,0.00,,,0.00,,2013-09-05 05:23:00,
2013-09-05 01:43:00,65.0,57.0,-100.00,ENE,71,3.0,6.0,76,0.00,,,0.00,,2013-09-05 05:43:00,
2013-09-05 01:52:00,65.0,56.0,-100.00,NE,48,4.0,6.0,73,0.00,,,0.00,,2013-09-05 05:52:00,
2013-09-05 02:13:00,65.0,55.0,-100.00,NE,47,3.0,6.0,72,0.00,,,0.00,,2013-09-05 06:13:00,
2013-09-05 02:22:00,64.0,56.0,-100.00,NE,41,2.0,3.0,73,0.00,,,0.00,,2013-09-05 06:22:00,
2013-09-05 02:42:00,61.0,56.0,-100.00,NNE,13,1.0,2.0,85,0.00,,,0.00,,2013-09-05 06:42:00,
2013-09-05 02:52:00,60.0,57.0,-100.00,SW,216,0.0,0.0,88,0.00,,,0.00,,2013-09-05 06:52:00,
2013-09-05 03:12:00,61.0,55.0,-100.00,NNE,13,2.0,3.0,82,0.00,,,0.00,,2013-09-05 07:12:00,
2013-09-05 03:23:00,62.0,55.0,-100.00,NNW,336,2.0,3.0,78,0.00,,,0.00,,2013-09-05 07:23:00,
2013-09-05 03:52:00,62.0,55.0,-100.00,NNE,30,2.0,3.0,77,0.00,,,0.00,,2013-09-05 07:52:00,
2013-09-05 04:12:00,62.0,55.0,-100.00,North,10,2.0,3.0,79,0.00,,,0.00,,2013-09-05 08:12:00,
2013-09-05 04:22:00,60.0,55.0,-100.00,ESE,112,1.0,2.0,86,0.00,,,0.00,,2013-09-05 08:22:00,
2013-09-05 04:42:00,60.0,55.0,-100.00,North,1,1.0,2.0,85,0.00,,,0.00,,2013-09-05 08:42:00,
2013-09-05 04:52:00,61.0,55.0,-100.00,North,356,2.0,2.0,81,0.00,,,0.00,,2013-09-05 08:52:00,
2013-09-05 05:11:00,59.0,55.0,-100.00,West,263,0.0,1.0,87,0.00,,,0.00,,2013-09-05 09:11:00,
2013-09-05 05:22:00,60.0,55.0,-100.00,North,354,1.0,2.0,85,0.00,,,0.00,,2013-09-05 09:22:00,
2013-09-05 05:43:00,60.0,55.0,-100.00,NNW,335,1.0,2.0,85,0.00,,,0.00,,2013-09-05 09:43:00,
2013-09-05 05:54:00,60.0,55.0,-100.00,NNE,16,2.0,4.0,82,0.00,,,0.00,,2013-09-05 09:54:00,
2013-09-05 06:13:00,60.0,55.0,-100.00,NNW,330,2.0,3.0,85,0.00,,,0.00,,2013-09-05 10:13:00,
2013-09-05 06:43:00,60.0,55.0,-100.00,North,359,2.0,3.0,84,0.00,,,0.00,,2013-09-05 10:43:00,
2013-09-05 06:53:00,59.0,56.0,-100.00,NNE,24,1.0,2.0,89,0.00,,,0.00,,2013-09-05 10:53:00,
2013-09-05 07:22:00,61.0,55.0,-100.00,NE,35,2.0,4.0,81,0.00,,,0.00,,2013-09-05 11:22:00,
2013-09-05 07:52:00,60.0,56.0,-100.00,NW,313,1.0,2.0,84,0.00,,,0.00,,2013-09-05 11:52:00,
2013-09-05 10:42:00,68.0,56.0,-100.00,East,100,4.0,7.0,66,0.00,,,0.00,,2013-09-05 14:42:00,
2013-09-05 10:52:00,68.0,58.0,-100.00,SE,134,2.0,5.0,69,0.00,,,0.00,,2013-09-05 14:52:00,
2013-09-05 11:11:00,68.0,58.0,-100.00,SE,134,2.0,7.0,70,0.00,,,0.00,,2013-09-05 15:11:00,
2013-09-05 11:22:00,69.0,58.0,-100.00,SW,236,2.0,5.0,69,0.00,,,0.00,,2013-09-05 15:22:00,
2013-09-05 11:44:00,69.0,60.0,-100.00,ESE,121,1.0,5.0,71,0.00,,,0.00,,2013-09-05 15:44:00,
2013-09-05 11:54:00,70.0,59.0,-100.00,ESE,109,2.0,5.0,68,0.00,,,0.00,,2013-09-05 15:54:00,
2013-09-05 12:24:00,70.0,60.0,-100.00,SSE,151,2.0,4.0,70,0.00,,,0.00,,2013-09-05 16:24:00,
2013-09-05 12:43:00,71.0,59.0,-100.00,ESE,113,5.0,11.0,65,0.00,,,0.00,,2013-09-05 16:43:00,
2013-09-05 12:54:00,71.0,59.0,-100.00,ESE,113,5.0,11.0,65,0.00,,,0.00,,2013-09-05 16:54:00,
2013-09-05 13:12:00,71.0,57.0,-100.00,East,83,7.0,10.0,60,0.00,,,0.00,,2013-09-05 17:12:00,
2013-09-05 13:23:00,72.0,58.0,-100.00,SE,127,3.0,6.0,61,0.00,,,0.00,,2013-09-05 17:23:00,
2013-09-05 13:43:00,74.0,62.0,-100.00,ESE,104,3.0,6.0,64,0.00,,,0.00,,2013-09-05 17:43:00,
2013-09-05 13:52:00,74.0,58.0,-100.00,South,174,3.0,5.0,59,0.00,,,0.00,,2013-09-05 17:52:00,
2013-09-05 14:12:00,75.0,60.0,-100.00,SE,126,4.0,7.0,61,0.00,,,0.00,,2013-09-05 18:12:00,
2013-09-05 14:22:00,76.0,61.0,-100.00,ESE,119,1.0,3.0,60,0.00,,,0.00,,2013-09-05 18:22:00,
2013-09-05 14:42:00,76.0,59.0,-100.00,ESE,123,3.0,5.0,56,0.00,,,0.00,,2013-09-05 18:42:00,
2013-09-05 14:52:00,76.0,57.0,-100.00,ESE,117,5.0,10.0,52,0.00,,,0.00,,2013-09-05 18:52:00,
2013-09-05 15:02:00,76.0,57.0,-100.00,ESE,117,5.0,10.0,52,0.00,,,0.00,,2013-09-05 19:02:00,
2013-09-05 15:11:00,76.0,57.0,-100.00,ESE,117,5.0,10.0,52,0.00,,,0.00,,2013-09-05 19:11:00,
2013-09-05 15:22:00,76.0,58.0,-100.00,ESE,114,4.0,8.0,54,0.00,,,0.00,,2013-09-05 19:22:00,
2013-09-05 15:42:00,76.0,58.0,-100.00,SE,124,4.0,11.0,55,0.00,,,0.00,,2013-09-05 19:42:00,
2013-09-05 16:11:00,78.0,56.0,-100.00,SE,126,2.0,4.0,46,0.00,,,0.00,,2013-09-05 20:11:00,
2013-09-05 16:22:00,79.0,57.0,-100.00,ESE,123,3.0,6.0,47,0.00,,,0.00,,2013-09-05 20:22:00,
2013-09-05 16:32:00,79.0,57.0,-100.00,ESE,123,3.0,6.0,47,0.00,,,0.00,,2013-09-05 20:32:00,
2013-09-05 16:43:00,79.0,57.0,-100.00,ESE,123,3.0,6.0,47,0.00,,,0.00,,2013-09-05 20:43:00,
2013-09-05 16:52:00,77.0,55.0,-100.00,ESE,119,3.0,4.0,47,0.00,,,0.00,,2013-09-05 20:52:00,
2013-09-05 17:12:00,76.0,55.0,-100.00,East,97,7.0,10.0,48,0.00,,,0.00,,2013-09-05 21:12:00,
2013-09-05 17:22:00,76.0,55.0,-100.00,East,97,7.0,10.0,48,0.00,,,0.00,,2013-09-05 21:22:00,
2013-09-05 17:44:00,77.0,56.0,-100.00,East,93,3.0,7.0,50,0.00,,,0.00,,2013-09-05 21:44:00,
2013-09-05 17:54:00,76.0,57.0,-100.00,East,90,4.0,7.0,52,0.00,,,0.00,,2013-09-05 21:54:00,
2013-09-05 18:13:00,75.0,58.0,-100.00,East,97,5.0,7.0,55,0.00,,,0.00,,2013-09-05 22:13:00,
2013-09-05 18:24:00,75.0,59.0,-100.00,ESE,110,3.0,6.0,57,0.00,,,0.00,,2013-09-05 22:24:00,
2013-09-05 18:43:00,74.0,59.0,-100.00,East,83,4.0,7.0,58,0.00,,,0.00,,2013-09-05 22:43:00,
2013-09-05 18:53:00,75.0,60.0,-100.00,East,92,3.0,6.0,61,0.00,,,0.00,,2013-09-05 22:53:00,
2013-09-05 19:12:00,74.0,58.0,-100.00,NE,51,2.0,3.0,57,0.00,,,0.00,,2013-09-05 23:12:00,
2013-09-05 19:22:00,73.0,58.0,-100.00,NE,41,2.0,4.0,61,0.00,,,0.00,,2013-09-05 23:22:00,
2013-09-05 19:42:00,71.0,58.0,-100.00,NNE,27,2.0,3.0,64,0.00,,,0.00,,2013-09-05 23:42:00,
2013-09-05 19:53:00,70.0,58.0,-100.00,NNE,21,3.0,4.0,67,0.00,,,0.00,,2013-09-05 23:53:00,
2013-09-05 20:12:00,69.0,58.0,-100.00,NE,47,2.0,3.0,68,0.00,,,0.00,,2013-09-06 00:12:00,
2013-09-05 20:22:00,69.0,58.0,-100.00,North,10,2.0,4.0,68,0.00,,,0.00,,2013-09-06 00:22:00,
2013-09-05 20:42:00,69.0,57.0,-100.00,North,353,3.0,5.0,65,0.00,,,0.00,,2013-09-06 00:42:00,
2013-09-05 20:52:00,68.0,58.0,-100.00,North,3,2.0,4.0,70,0.00,,,0.00,,2013-09-06 00:52:00,
2013-09-05 21:11:00,68.0,57.0,-100.00,NE,55,5.0,7.0,69,0.00,,,0.00,,2013-09-06 01:11:00,
2013-09-05 21:22:00,68.0,57.0,-100.00,ENE,65,5.0,8.0,68,0.00,,,0.00,,2013-09-06 01:22:00,
2013-09-05 21:32:00,68.0,57.0,-100.00,ENE,65,5.0,8.0,68,0.00,,,0.00,,2013-09-06 01:32:00,
2013-09-05 21:42:00,68.0,57.0,-100.00,ENE,65,5.0,8.0,68,0.00,,,0.00,,2013-09-06 01:42:00,
2013-09-05 21:52:00,68.0,57.0,-100.00,ENE,66,4.0,5.0,68,0.00,,,0.00,,2013-09-06 01:52:00,
2013-09-05 22:02:00,68.0,57.0,-100.00,ENE,66,4.0,5.0,68,0.00,,,0.00,,2013-09-06 02:02:00,
2013-09-05 22:12:00,68.0,57.0,-100.00,ENE,66,4.0,5.0,68,0.00,,,0.00,,2013-09-06 02:12:00,
2013-09-05 22:22:00,67.0,58.0,-100.00,NE,38,2.0,4.0,73,0.00,,,0.00,,2013-09-06 02:22:00,
2013-09-05 22:32:00,67.0,58.0,-100.00,NE,38,2.0,4.0,73,0.00,,,0.00,,2013-09-06 02:32:00,
2013-09-05 22:42:00,67.0,58.0,-100.00,NE,38,2.0,4.0,73,0.00,,,0.00,,2013-09-06 02:42:00,
2013-09-05 22:52:00,66.0,57.0,-100.00,NNE,27,3.0,4.0,72,0.00,,,0.00,,2013-09-06 02:52:00,
2013-09-05 23:11:00,66.0,57.0,-100.00,NNE,32,2.0,4.0,73,0.00,,,0.00,,2013-09-06 03:11:00,
2013-09-05 23:22:00,65.0,58.0,-100.00,NNW,347,3.0,4.0,75,0.00,,,0.00,,2013-09-06 03:22:00,
2013-09-05 23:44:00,65.0,57.0,-100.00,North,0,2.0,3.0,75,0.00,,,0.00,,2013-09-06 03:44:00,
2013-09-05 23:55:00,65.0,58.0,-100.00,NW,326,2.0,3.0,76,0.00,,,0.00,,2013-09-06 03:55:00,